CBERS 1 DEB

Satellite information

Favourite Embed

Satellite Type and Status

DEBRISIN ORBIT

Key statistics

Satellite CBERS 1 DEB at a glance.

Uptime

9336

Days in orbit

Revolutions

≈ 14.4

Per day

Orbit

SSO

Sun Synchronous Orbit

Inclination

98.8

Latest

Satellite identification and parameters

Extended collection of information and parameters for CBERS 1 DEB.

Object identification

Identified? True

Debris? True

Object name: CBERS 1 DEB

International designator: 1999-057QT

Object number (NORAD): 32079

Object ID (CCSDS): 32079

Country: PEOPLES REPUBLIC OF CHINA/BRAZIL (CHBZ)

Current information (Y/N): Y

RCS size: SMALL

Orbital parameters

Period: 99.707 minutes

Inclination: 98.7703 deg

SMA: 7122.69 km

Apoapsis: 749.078 km

Periapsis: 740.033 km

RAAN: 136.1011 deg

Eccentricy: 0.0006349

Argument of periapsis: 52.9082 deg

Mean anomaly: 307.2687 deg

Mean motion: 14.44230971 rev/day

Mean motion (dot): 0.00002245 rev/day2

B* drag term: 0.00066722 1/REarth

Two-line elements (TLE)

Creation date: May 3, 2025, 5:28 p.m.

Reference frame: TEME

Reference center: EARTH

Epoch: May 3, 2025, 6:19 a.m. UTC

TLE line 0: 0 CBERS 1 DEB

TLE line 1: 1 32079U 99057QT 25123.26376010 .00002245 00000-0 66722-3 0 9998

TLE line 2: 2 32079 98.7703 136.1011 0006349 52.9082 307.2687 14.44230971938264

Live tracking on map

Real-time ground track for satellite CBERS 1 DEB.

In-orbit conjunctions

A list of the most updated potential collisions computed for object CBERS 1 DEB.

Target Orbit TCA Probability of collision Miss distance Type
BREEZE-KM R/B SSO 2025-02-20 04:45:31 0.0007426618 62.0 (m) ROCKET BODY
THORAD AGENA D DEB LEO 2025-02-12 11:06:21 0.000216027 205.0 (m) DEBRIS
SL-8 R/B LEO 2024-10-17 13:47:56 0.0001762719 769.0 (m) ROCKET BODY

Associated space launch

The CBERS (China Brazil Earth Resources Satellite) or ZY 1 (Zi Yuan) satellites are designed for global coverage and include cameras to make optical observations and a data collecting system to gather data on the environment. They are unique systems due to the use of on-board sensors which combine features that are especially designed to resolve the broad range of space and time scales involved in the monitoring and preservation of the ecosystem. They are operated jointly by the China Centre for Resources Satellite Data and Application (CRESDA) and the Brazilian INPE (Instituto Nacional de Pesquisas Espaciais, National Institute of Space Research).

CBERS 1 DEB was lifted into orbit during the mission ‘Long March 4B | Zi Yuan 1-1’, on board a Long March 4B space rocket.

The launch took place on Oct. 14, 1999, 3:15 a.m. from Launch Complex 7.

For more information about the launch, click the button.

Launch to space Long March 4B | Zi Yuan 1-1
Long March 4B | Zi Yuan 1-1

Agency: N/A

Status: Launch Successful

Launch date: Oct. 14, 1999, 3:15 a.m. UTC

Rocket: Long March 4B

Launch pad: Launch Complex 7

Location: Taiyuan Satellite Launch Center, People's Republic of China

...

Latest news about this satellite

There are no fresh news available about this satellite. Check back as we update our databases every day.


Newsletter sign-up

Weekly statistics, charts and insights to help you stay on top of the space industry.